| time (UTC) | temp F | wind direction | speed MPH | gust MPH | rain 1hr in | rain 24hr in | rain mn in | humidity % | barometer mb |
| 20260506051249 | 38 | 303 | 1.0 | 14.0 | 0.00 | 0.00 | 0.00 | 62 | 1013.1 |
| 20260506050747 | 38 | 334 | 1.0 | 5.0 | 0.00 | 0.00 | 0.00 | 59 | 1013.0 |
| 20260506050523 | 38 | 354 | 2.0 | 6.0 | 0.00 | 0.00 | 0.00 | 60 | 1012.9 |
| 20260506050248 | 38 | 326 | 2.0 | 6.0 | 0.00 | 0.00 | 0.00 | 60 | 1012.9 |
| 20260506045007 | 37 | 340 | 0.0 | 2.0 | 0.00 | 0.00 | 0.00 | 60 | 1013.0 |
| 20260506044500 | 38 | 342 | 0.0 | 2.0 | 0.00 | 0.00 | 0.00 | 59 | 1013.0 |
| 20260506043956 | 38 | 330 | 1.0 | 3.0 | 0.00 | 0.00 | 0.00 | 59 | 1013.0 |
| 20260506043218 | 38 | 297 | 1.0 | 9.0 | 0.00 | 0.00 | 0.00 | 59 | 1013.0 |
| 20260506042711 | 38 | 319 | 2.0 | 9.0 | 0.00 | 0.00 | 0.00 | 59 | 1012.9 |
| 20260506042205 | 38 | 336 | 2.0 | 6.0 | 0.00 | 0.00 | 0.00 | 61 | 1013.0 |
| 20260506041700 | 38 | 314 | 3.0 | 7.0 | 0.00 | 0.00 | 0.00 | 58 | 1013.0 |
| 20260506041154 | 38 | 337 | 3.0 | 9.0 | 0.00 | 0.00 | 0.00 | 59 | 1012.9 |
| 20260506040648 | 38 | 332 | 4.0 | 10.0 | 0.00 | 0.00 | 0.00 | 59 | 1012.9 |
| 20260506040142 | 38 | 323 | 2.0 | 10.0 | 0.00 | 0.00 | 0.00 | 59 | 1012.7 |
| 20260506035636 | 38 | 303 | 2.0 | 7.0 | 0.00 | 0.00 | 0.00 | 59 | 1012.9 |
| 20260506035130 | 38 | 288 | 4.0 | 9.0 | 0.00 | 0.00 | 0.00 | 59 | 1012.9 |
| 20260506034625 | 38 | 348 | 5.0 | 10.0 | 0.00 | 0.00 | 0.00 | 59 | 1012.9 |
| 20260506034620 | 38 | 337 | 6.0 | 13.0 | 0.00 | 0.00 | 0.00 | 61 | 1012.9 |
| 20260506033612 | 38 | 325 | 7.0 | 13.0 | 0.00 | 0.00 | 0.00 | 61 | 1013.0 |
| 20260506033106 | 38 | 319 | 5.0 | 11.0 | 0.00 | 0.00 | 0.00 | 64 | 1013.0 |
| 20260506032830 | 38 | 333 | 4.0 | 11.0 | 0.00 | 0.00 | 0.00 | 62 | 1013.0 |
| 20260506032054 | 38 | 340 | 4.0 | 11.0 | 0.00 | 0.00 | 0.00 | 62 | 1013.0 |
| 20260506031548 | 38 | 296 | 5.0 | 12.0 | 0.00 | 0.00 | 0.00 | 62 | 1013.0 |
| 20260506031312 | 38 | 339 | 5.0 | 12.0 | 0.00 | 0.00 | 0.00 | 62 | 1012.9 |
| 20260506030536 | 38 | 1 | 5.0 | 8.0 | 0.00 | 0.00 | 0.00 | 61 | 1012.9 |
| 20260506030030 | 38 | 303 | 5.0 | 9.0 | 0.00 | 0.00 | 0.00 | 60 | 1012.9 |
| 20260506025524 | 38 | 317 | 5.0 | 10.0 | 0.00 | 0.00 | 0.00 | 62 | 1012.7 |
| 20260506025018 | 38 | 316 | 4.0 | 10.0 | 0.00 | 0.00 | 0.00 | 62 | 1012.7 |
| 20260506024511 | 38 | 334 | 4.0 | 9.0 | 0.00 | 0.00 | 0.00 | 59 | 1012.7 |
| 20260506024236 | 38 | 327 | 4.0 | 9.0 | 0.00 | 0.00 | 0.00 | 63 | 1012.6 |
| 20260506023500 | 38 | 311 | 4.0 | 8.0 | 0.00 | 0.00 | 0.00 | 61 | 1012.5 |
| 20260506022954 | 38 | 326 | 3.0 | 8.0 | 0.00 | 0.00 | 0.00 | 58 | 1012.6 |
| 20260506022448 | 38 | 342 | 2.0 | 7.0 | 0.00 | 0.00 | 0.00 | 58 | 1012.5 |
| 20260506021942 | 38 | 328 | 3.0 | 9.0 | 0.00 | 0.00 | 0.00 | 57 | 1012.4 |
| 20260506021436 | 38 | 276 | 3.0 | 9.0 | 0.00 | 0.00 | 0.00 | 59 | 1012.3 |
| 20260506020930 | 39 | 318 | 4.0 | 10.0 | 0.00 | 0.00 | 0.00 | 59 | 1012.2 |
| 20260506020423 | 39 | 343 | 4.0 | 11.0 | 0.00 | 0.00 | 0.00 | 58 | 1012.1 |
| 20260506020150 | 39 | 333 | 3.0 | 11.0 | 0.00 | 0.00 | 0.00 | 56 | 1012.0 |
| 20260506015642 | 39 | 330 | 3.0 | 9.0 | 0.00 | 0.00 | 0.00 | 56 | 1011.9 |
| 20260506015238 | 39 | 323 | 6.0 | 11.0 | 0.00 | 0.00 | 0.00 | 57 | 1011.9 |
| 20260506015155 | 39 | 323 | 5.0 | 12.0 | 0.00 | 0.00 | 0.00 | 57 | 1011.8 |
| 20260506013854 | 40 | 335 | 5.0 | 12.0 | 0.00 | 0.00 | 0.00 | 57 | 1011.8 |
| 20260506013347 | 40 | 318 | 5.0 | 9.0 | 0.00 | 0.00 | 0.00 | 60 | 1011.7 |
| 20260506012842 | 40 | 345 | 5.0 | 11.0 | 0.00 | 0.00 | 0.00 | 60 | 1011.7 |
| 20260506012336 | 40 | 338 | 5.0 | 11.0 | 0.00 | 0.00 | 0.00 | 61 | 1011.6 |
| 20260506011833 | 40 | 338 | 6.0 | 15.0 | 0.00 | 0.00 | 0.00 | 60 | 1011.6 |
| 20260506011827 | 40 | 307 | 7.0 | 15.0 | 0.00 | 0.00 | 0.00 | 60 | 1011.7 |
| 20260506010825 | 40 | 332 | 7.0 | 13.0 | 0.00 | 0.00 | 0.00 | 60 | 1011.6 |
| 20260506010325 | 41 | 342 | 7.0 | 13.0 | 0.00 | 0.00 | 0.00 | 65 | 1011.5 |
| 20260506005826 | 40 | 341 | 7.0 | 13.0 | 0.00 | 0.00 | 0.00 | 60 | 1011.5 |
| 20260506005325 | 41 | 338 | 6.0 | 12.0 | 0.00 | 0.00 | 0.00 | 59 | 1011.5 |
| 20260506004825 | 41 | 326 | 6.0 | 15.0 | 0.00 | 0.00 | 0.00 | 60 | 1011.4 |
| 20260506004325 | 41 | 343 | 6.0 | 15.0 | 0.00 | 0.00 | 0.00 | 61 | 1011.3 |
| 20260506003824 | 41 | 317 | 8.0 | 15.0 | 0.00 | 0.00 | 0.00 | 60 | 1011.3 |
| 20260506003325 | 41 | 348 | 8.0 | 14.0 | 0.00 | 0.00 | 0.00 | 62 | 1011.2 |
| 20260506003055 | 42 | 3 | 7.0 | 14.0 | 0.00 | 0.00 | 0.00 | 57 | 1011.2 |
| 20260506002325 | 42 | 335 | 6.0 | 14.0 | 0.00 | 0.00 | 0.00 | 57 | 1011.1 |
| 20260506001826 | 42 | 350 | 5.0 | 14.0 | 0.00 | 0.00 | 0.00 | 56 | 1011.0 |
| 20260506001324 | 42 | 333 | 5.0 | 14.0 | 0.00 | 0.00 | 0.00 | 55 | 1011.0 |
| 20260506000825 | 42 | 321 | 4.0 | 14.0 | 0.00 | 0.00 | 0.00 | 56 | 1010.9 |
| 20260506000324 | 42 | 348 | 4.0 | 9.0 | 0.00 | 0.00 | 0.00 | 56 | 1010.9 |
| 20260505235826 | 42 | 333 | 5.0 | 10.0 | 0.00 | 0.00 | 0.00 | 54 | 1010.8 |
| 20260505235319 | 42 | 324 | 5.0 | 13.0 | 0.00 | 0.00 | 0.00 | 54 | 1010.7 |
| 20260505234814 | 43 | 341 | 4.0 | 13.0 | 0.00 | 0.00 | 0.00 | 53 | 1010.8 |
| 20260505234307 | 43 | 328 | 4.0 | 17.0 | 0.00 | 0.00 | 0.00 | 54 | 1010.6 |
| 20260505233801 | 43 | 344 | 5.0 | 17.0 | 0.00 | 0.00 | 0.00 | 54 | 1010.6 |
| 20260505233301 | 43 | 314 | 5.0 | 14.0 | 0.00 | 0.00 | 0.00 | 53 | 1010.5 |
| 20260505232801 | 43 | 335 | 5.0 | 11.0 | 0.00 | 0.00 | 0.00 | 53 | 1010.5 |
| 20260505232305 | 43 | 352 | 4.0 | 11.0 | 0.00 | 0.00 | 0.00 | 54 | 1010.6 |
| 20260505231800 | 43 | 318 | 6.0 | 15.0 | 0.00 | 0.00 | 0.00 | 53 | 1010.5 |
| 20260505231300 | 44 | 347 | 8.0 | 15.0 | 0.00 | 0.00 | 0.00 | 56 | 1010.5 |
| 20260505231032 | 44 | 307 | 8.0 | 19.0 | 0.00 | 0.00 | 0.00 | 55 | 1010.4 |
| 20260505230301 | 44 | 350 | 8.0 | 19.0 | 0.00 | 0.00 | 0.00 | 54 | 1010.4 |
| 20260505225801 | 44 | 328 | 8.0 | 16.0 | 0.00 | 0.00 | 0.00 | 52 | 1010.4 |
| 20260505225301 | 44 | 328 | 6.0 | 13.0 | 0.00 | 0.00 | 0.00 | 55 | 1010.4 |
| 20260505224800 | 44 | 337 | 6.0 | 14.0 | 0.00 | 0.00 | 0.00 | 56 | 1010.4 |
| 20260505224301 | 44 | 273 | 5.0 | 15.0 | 0.00 | 0.00 | 0.00 | 51 | 1010.3 |
| 20260505223759 | 45 | 355 | 5.0 | 15.0 | 0.00 | 0.00 | 0.00 | 51 | 1010.4 |
| 20260505223258 | 44 | 297 | 6.0 | 13.0 | 0.00 | 0.00 | 0.00 | 52 | 1010.4 |
| 20260505222759 | 44 | 336 | 5.0 | 13.0 | 0.00 | 0.00 | 0.00 | 51 | 1010.3 |
| 20260505222300 | 45 | 322 | 6.0 | 16.0 | 0.00 | 0.00 | 0.00 | 51 | 1010.3 |
| 20260505221758 | 45 | 302 | 7.0 | 17.0 | 0.00 | 0.00 | 0.00 | 50 | 1010.3 |
| 20260505221258 | 45 | 347 | 7.0 | 17.0 | 0.00 | 0.00 | 0.00 | 50 | 1010.3 |
| 20260505220759 | 45 | 338 | 5.0 | 14.0 | 0.00 | 0.00 | 0.00 | 49 | 1010.2 |
| 20260505220258 | 46 | 347 | 4.0 | 14.0 | 0.00 | 0.00 | 0.00 | 49 | 1010.1 |
| 20260505215800 | 46 | 339 | 5.0 | 17.0 | 0.00 | 0.00 | 0.00 | 48 | 1010.1 |
| 20260505215255 | 46 | 338 | 5.0 | 17.0 | 0.00 | 0.00 | 0.00 | 47 | 1010.1 |
| 20260505214755 | 46 | 342 | 5.0 | 14.0 | 0.00 | 0.00 | 0.00 | 48 | 1010.1 |
| 20260505214254 | 46 | 2 | 8.0 | 19.0 | 0.00 | 0.00 | 0.00 | 49 | 1010.0 |
| 20260505213755 | 46 | 348 | 8.0 | 19.0 | 0.00 | 0.00 | 0.00 | 49 | 1010.1 |
| 20260505213254 | 47 | 335 | 5.0 | 16.0 | 0.00 | 0.00 | 0.00 | 47 | 1010.1 |
| 20260505212754 | 46 | 316 | 6.0 | 17.0 | 0.00 | 0.00 | 0.00 | 49 | 1010.1 |
| 20260505212255 | 46 | 336 | 6.0 | 17.0 | 0.00 | 0.00 | 0.00 | 50 | 1010.2 |
| 20260505211800 | 46 | 6 | 6.0 | 17.0 | 0.00 | 0.00 | 0.00 | 52 | 1010.1 |
| 20260505211755 | 46 | 350 | 6.0 | 17.0 | 0.00 | 0.00 | 0.00 | 50 | 1010.1 |
| 20260505210751 | 45 | 317 | 6.0 | 15.0 | 0.00 | 0.00 | 0.00 | 53 | 1010.1 |
| 20260505210252 | 45 | 342 | 7.0 | 16.0 | 0.00 | 0.00 | 0.00 | 52 | 1010.1 |
| 20260505205751 | 45 | 314 | 6.0 | 16.0 | 0.00 | 0.00 | 0.00 | 51 | 1010.2 |
| 20260505205250 | 45 | 295 | 6.0 | 14.0 | 0.00 | 0.00 | 0.00 | 52 | 1010.0 |
| 20260505204750 | 45 | 302 | 8.0 | 16.0 | 0.00 | 0.00 | 0.00 | 52 | 1010.2 |
| 20260505204521 | 45 | 321 | 7.0 | 16.0 | 0.00 | 0.00 | 0.00 | 50 | 1010.1 |
| 20260505203750 | 46 | 343 | 6.0 | 13.0 | 0.00 | 0.00 | 0.00 | 51 | 1010.1 |
| 20260505203250 | 46 | 317 | 7.0 | 20.0 | 0.00 | 0.00 | 0.00 | 54 | 1010.1 |
| 20260505202752 | 46 | 308 | 6.0 | 20.0 | 0.00 | 0.00 | 0.00 | 52 | 1010.1 |
| 20260505202519 | 46 | 334 | 5.0 | 16.0 | 0.00 | 0.00 | 0.00 | 50 | 1010.1 |
| 20260505201747 | 46 | 311 | 5.0 | 16.0 | 0.00 | 0.00 | 0.00 | 48 | 1010.2 |
| 20260505201247 | 46 | 161 | 5.0 | 11.0 | 0.00 | 0.00 | 0.00 | 51 | 1010.2 |
| 20260505200748 | 46 | 335 | 4.0 | 13.0 | 0.00 | 0.00 | 0.00 | 49 | 1010.1 |
| 20260505200246 | 46 | 290 | 4.0 | 13.0 | 0.00 | 0.00 | 0.00 | 49 | 1010.1 |
| 20260505195744 | 46 | 328 | 5.0 | 12.0 | 0.00 | 0.00 | 0.00 | 48 | 1010.1 |
| 20260505195243 | 46 | 337 | 4.0 | 12.0 | 0.00 | 0.00 | 0.00 | 48 | 1010.0 |
| 20260505194741 | 46 | 0 | 4.0 | 13.0 | 0.00 | 0.00 | 0.00 | 51 | 1010.1 |
| 20260505194246 | 45 | 326 | 6.0 | 14.0 | 0.00 | 0.00 | 0.00 | 52 | 1010.1 |
| 20260505194242 | 46 | 321 | 7.0 | 14.0 | 0.00 | 0.00 | 0.00 | 50 | 1010.2 |
| 20260505193238 | 45 | 344 | 5.0 | 12.0 | 0.00 | 0.00 | 0.00 | 51 | 1010.1 |
| 20260505192738 | 45 | 344 | 5.0 | 12.0 | 0.00 | 0.00 | 0.00 | 50 | 1010.1 |
| 20260505192237 | 46 | 317 | 5.0 | 12.0 | 0.00 | 0.00 | 0.00 | 49 | 1010.2 |
| 20260505191739 | 45 | 336 | 5.0 | 12.0 | 0.00 | 0.00 | 0.00 | 47 | 1010.0 |
| 20260505191509 | 46 | 350 | 4.0 | 10.0 | 0.00 | 0.00 | 0.00 | 48 | 1010.0 |
| 20260505190732 | 46 | 39 | 4.0 | 12.0 | 0.00 | 0.00 | 0.00 | 49 | 1010.0 |
| 20260505190224 | 46 | 302 | 4.0 | 12.0 | 0.00 | 0.00 | 0.00 | 53 | 1010.1 |
| 20260505185724 | 45 | 257 | 3.0 | 10.0 | 0.00 | 0.00 | 0.00 | 50 | 1010.1 |
| 20260505185222 | 45 | 346 | 3.0 | 8.0 | 0.00 | 0.00 | 0.00 | 49 | 1010.2 |
| 20260505184722 | 46 | 303 | 3.0 | 9.0 | 0.00 | 0.00 | 0.00 | 49 | 1010.1 |
| 20260505184223 | 45 | 285 | 4.0 | 15.0 | 0.00 | 0.00 | 0.00 | 55 | 1010.1 |
| 20260505183954 | 44 | 305 | 3.0 | 15.0 | 0.00 | 0.00 | 0.00 | 53 | 1010.1 |
| 20260505183222 | 44 | 302 | 6.0 | 21.0 | 0.00 | 0.00 | 0.00 | 54 | 1010.1 |
| 20260505182722 | 44 | 309 | 8.0 | 21.0 | 0.00 | 0.00 | 0.00 | 55 | 1010.1 |
| 20260505182223 | 44 | 306 | 7.0 | 13.0 | 0.00 | 0.00 | 0.00 | 56 | 1010.0 |
| 20260505181723 | 44 | 341 | 6.0 | 14.0 | 0.00 | 0.00 | 0.00 | 51 | 1010.0 |
| 20260505181222 | 44 | 338 | 5.0 | 14.0 | 0.00 | 0.00 | 0.00 | 53 | 1010.0 |
| 20260505180723 | 44 | 308 | 5.0 | 10.0 | 0.00 | 0.00 | 0.00 | 53 | 1010.0 |
| 20260505180222 | 44 | 292 | 5.0 | 11.0 | 0.00 | 0.00 | 0.00 | 52 | 1010.1 |
| 20260505175955 | 44 | 339 | 4.0 | 13.0 | 0.00 | 0.00 | 0.00 | 51 | 1010.0 |
| 20260505175222 | 44 | 273 | 4.0 | 13.0 | 0.00 | 0.00 | 0.00 | 51 | 1009.9 |
| 20260505174722 | 44 | 289 | 4.0 | 13.0 | 0.00 | 0.00 | 0.00 | 51 | 1010.1 |
| 20260505174223 | 43 | 312 | 3.0 | 13.0 | 0.00 | 0.00 | 0.00 | 52 | 1010.1 |
| 20260505173717 | 43 | 309 | 4.0 | 11.0 | 0.00 | 0.00 | 0.00 | 54 | 1010.0 |
| 20260505173211 | 43 | 249 | 5.0 | 15.0 | 0.00 | 0.00 | 0.00 | 54 | 1010.0 |
| 20260505172704 | 43 | 347 | 5.0 | 15.0 | 0.00 | 0.00 | 0.00 | 52 | 1010.0 |
| 20260505172159 | 43 | 21 | 5.0 | 12.0 | 0.00 | 0.00 | 0.00 | 52 | 1009.9 |
| 20260505171653 | 43 | 337 | 4.0 | 11.0 | 0.00 | 0.00 | 0.00 | 54 | 1009.9 |
| 20260505171417 | 43 | 297 | 3.0 | 10.0 | 0.00 | 0.00 | 0.00 | 51 | 1010.0 |
| 20260505170640 | 44 | 261 | 3.0 | 13.0 | 0.00 | 0.00 | 0.00 | 53 | 1010.0 |
| 20260505170136 | 43 | 330 | 4.0 | 13.0 | 0.00 | 0.00 | 0.00 | 53 | 1009.9 |
| 20260505170131 | 44 | 322 | 3.0 | 10.0 | 0.00 | 0.00 | 0.00 | 52 | 1010.0 |
| 20260505165123 | 43 | 330 | 4.0 | 9.0 | 0.00 | 0.00 | 0.00 | 54 | 1009.9 |
| 20260505164617 | 42 | 330 | 5.0 | 15.0 | 0.00 | 0.00 | 0.00 | 59 | 1009.9 |
| 20260505164342 | 42 | 314 | 6.0 | 15.0 | 0.00 | 0.00 | 0.00 | 56 | 1010.0 |
| 20260505163605 | 42 | 340 | 6.0 | 15.0 | 0.00 | 0.00 | 0.00 | 56 | 1009.9 |
| 20260505163059 | 43 | 349 | 5.0 | 12.0 | 0.00 | 0.00 | 0.00 | 56 | 1009.8 |
| 20260505162552 | 43 | 312 | 5.0 | 12.0 | 0.00 | 0.00 | 0.00 | 55 | 1009.8 |
| 20260505162047 | 42 | 231 | 6.0 | 13.0 | 0.00 | 0.00 | 0.00 | 56 | 1009.8 |
| 20260505161540 | 42 | 295 | 5.0 | 13.0 | 0.00 | 0.00 | 0.00 | 54 | 1009.8 |
| 20260505161035 | 42 | 290 | 5.0 | 15.0 | 0.00 | 0.00 | 0.00 | 55 | 1009.8 |
| 20260505160528 | 42 | 314 | 5.0 | 15.0 | 0.00 | 0.00 | 0.00 | 58 | 1009.8 |
| 20260505152946 | 41 | 304 | 4.0 | 11.0 | 0.00 | 0.00 | 0.00 | 58 | 1009.5 |
| 20260505152711 | 41 | 324 | 5.0 | 18.0 | 0.00 | 0.00 | 0.00 | 59 | 1009.6 |
| 20260505151935 | 40 | 340 | 6.0 | 18.0 | 0.00 | 0.00 | 0.00 | 60 | 1009.8 |
| 20260505151429 | 40 | 329 | 6.0 | 13.0 | 0.00 | 0.00 | 0.00 | 58 | 1009.9 |
| 20260505150923 | 41 | 357 | 6.0 | 15.0 | 0.00 | 0.00 | 0.00 | 58 | 1009.8 |
| 20260505150417 | 40 | 326 | 5.0 | 15.0 | 0.00 | 0.00 | 0.00 | 61 | 1009.6 |
| 20260505140323 | 37 | 359 | 6.0 | 14.0 | 0.00 | 0.00 | 0.00 | 63 | 1009.0 |
| 20260505140317 | 37 | 335 | 6.0 | 17.0 | 0.00 | 0.00 | 0.00 | 63 | 1009.1 |
| 20260505124812 | 36 | 334 | 4.0 | 11.0 | 0.00 | 0.00 | 0.00 | 61 | 1008.5 |
| 20260505124311 | 36 | 304 | 5.0 | 11.0 | 0.00 | 0.00 | 0.00 | 60 | 1008.5 |
| 20260505123811 | 36 | 286 | 4.0 | 11.0 | 0.00 | 0.00 | 0.00 | 60 | 1008.4 |
| 20260505123311 | 36 | 324 | 3.0 | 11.0 | 0.00 | 0.00 | 0.00 | 60 | 1008.3 |
| 20260505122813 | 36 | 289 | 2.0 | 6.0 | 0.00 | 0.00 | 0.00 | 61 | 1008.3 |
| 20260505122313 | 36 | 315 | 3.0 | 10.0 | 0.00 | 0.00 | 0.00 | 61 | 1008.2 |
| 20260505121811 | 36 | 281 | 3.0 | 10.0 | 0.00 | 0.00 | 0.00 | 59 | 1008.2 |
| 20260505121543 | 37 | 286 | 3.0 | 7.0 | 0.00 | 0.00 | 0.00 | 58 | 1008.1 |
| 20260505120811 | 37 | 14 | 2.0 | 7.0 | 0.00 | 0.00 | 0.00 | 60 | 1008.0 |
| 20260505120312 | 37 | 342 | 3.0 | 10.0 | 0.00 | 0.00 | 0.00 | 57 | 1008.1 |
| 20260505115812 | 37 | 348 | 3.0 | 10.0 | 0.00 | 0.00 | 0.00 | 58 | 1008.0 |
| 20260505115312 | 37 | 302 | 2.0 | 10.0 | 0.00 | 0.00 | 0.00 | 58 | 1008.0 |
| 20260505114813 | 37 | 356 | 1.0 | 6.0 | 0.00 | 0.00 | 0.00 | 58 | 1007.9 |
| 20260505114312 | 37 | 251 | 1.0 | 6.0 | 0.00 | 0.00 | 0.00 | 58 | 1007.8 |
| 20260505114044 | 37 | 236 | 1.0 | 6.0 | 0.00 | 0.00 | 0.00 | 58 | 1007.7 |
| 20260505113311 | 37 | 315 | 0.0 | 4.0 | 0.00 | 0.00 | 0.00 | 60 | 1007.6 |
| 20260505112810 | 36 | 321 | 1.0 | 5.0 | 0.00 | 0.00 | 0.00 | 61 | 1007.5 |
| 20260505112540 | 35 | 337 | 1.0 | 5.0 | 0.00 | 0.00 | 0.00 | 61 | 1007.4 |
| 20260505111811 | 35 | 344 | 1.0 | 4.0 | 0.00 | 0.00 | 0.00 | 62 | 1007.4 |
| 20260505111308 | 35 | 318 | 0.0 | 4.0 | 0.00 | 0.00 | 0.00 | 62 | 1007.3 |
| 20260505110808 | 34 | 284 | 0.0 | 4.0 | 0.00 | 0.00 | 0.00 | 63 | 1007.3 |
| 20260505110540 | 34 | 326 | 1.0 | 4.0 | 0.00 | 0.00 | 0.00 | 62 | 1007.2 |
| 20260505101302 | 35 | 329 | 3.0 | 17.0 | 0.00 | 0.00 | 0.00 | 59 | 1006.8 |
| 20260505100807 | 36 | 295 | 3.0 | 13.0 | 0.00 | 0.00 | 0.00 | 58 | 1006.8 |
| 20260505100801 | 35 | 328 | 2.0 | 15.0 | 0.00 | 0.00 | 0.00 | 59 | 1006.6 |
| 20260505095801 | 36 | 290 | 4.0 | 13.0 | 0.00 | 0.00 | 0.00 | 58 | 1006.8 |
| 20260505095304 | 36 | 330 | 3.0 | 11.0 | 0.00 | 0.00 | 0.00 | 59 | 1006.6 |
| 20260505094803 | 36 | 4 | 2.0 | 9.0 | 0.00 | 0.00 | 0.00 | 59 | 1006.8 |
| 20260505094303 | 36 | 294 | 2.0 | 8.0 | 0.00 | 0.00 | 0.00 | 59 | 1006.5 |
| 20260505093803 | 36 | 212 | 1.0 | 8.0 | 0.00 | 0.00 | 0.00 | 59 | 1006.5 |
| 20260505093532 | 36 | 297 | 1.0 | 10.0 | 0.00 | 0.00 | 0.00 | 58 | 1006.4 |
| 20260505092803 | 36 | 326 | 1.0 | 10.0 | 0.00 | 0.00 | 0.00 | 58 | 1006.3 |
| 20260505092304 | 36 | 34 | 1.0 | 8.0 | 0.00 | 0.00 | 0.00 | 59 | 1006.3 |
| 20260505092032 | 36 | 300 | 2.0 | 8.0 | 0.00 | 0.00 | 0.00 | 59 | 1006.2 |
| 20260505091301 | 36 | 291 | 1.0 | 8.0 | 0.00 | 0.00 | 0.00 | 59 | 1006.1 |
| 20260505090801 | 36 | 340 | 1.0 | 7.0 | 0.00 | 0.00 | 0.00 | 59 | 1006.1 |
| 20260505090302 | 37 | 311 | 1.0 | 10.0 | 0.00 | 0.00 | 0.00 | 59 | 1006.0 |
| 20260505090033 | 37 | 340 | 1.0 | 10.0 | 0.00 | 0.00 | 0.00 | 59 | 1006.0 |
| 20260505085533 | 37 | 283 | 2.0 | 6.0 | 0.00 | 0.00 | 0.00 | 60 | 1006.0 |
| 20260505084800 | 37 | 322 | 1.0 | 6.0 | 0.00 | 0.00 | 0.00 | 61 | 1005.9 |
| 20260505084300 | 37 | 293 | 1.0 | 5.0 | 0.00 | 0.00 | 0.00 | 63 | 1005.9 |
| 20260505083800 | 37 | 335 | 2.0 | 11.0 | 0.00 | 0.00 | 0.00 | 63 | 1005.8 |
| 20260505083301 | 37 | 122 | 1.0 | 11.0 | 0.00 | 0.00 | 0.00 | 64 | 1005.7 |
| 20260505083028 | 37 | 314 | 0.0 | 4.0 | 0.00 | 0.00 | 0.00 | 65 | 1005.7 |
| 20260505082256 | 37 | 331 | 2.0 | 10.0 | 0.00 | 0.00 | 0.00 | 65 | 1005.7 |
| 20260505081754 | 37 | 302 | 2.0 | 12.0 | 0.00 | 0.00 | 0.00 | 67 | 1005.7 |
| 20260505081254 | 36 | 240 | 1.0 | 12.0 | 0.00 | 0.00 | 0.00 | 70 | 1005.7 |
| 20260505080748 | 36 | 293 | 0.0 | 4.0 | 0.00 | 0.00 | 0.00 | 73 | 1005.7 |
| 20260505080242 | 36 | 229 | 0.0 | 3.0 | 0.00 | 0.00 | 0.00 | 74 | 1005.7 |
| 20260505075736 | 35 | 305 | 0.0 | 2.0 | 0.00 | 0.00 | 0.00 | 74 | 1005.7 |
| 20260505075229 | 35 | 347 | 0.0 | 2.0 | 0.00 | 0.00 | 0.00 | 74 | 1005.7 |
| 20260505074724 | 35 | 266 | 0.0 | 2.0 | 0.00 | 0.00 | 0.00 | 74 | 1005.6 |
| 20260505074450 | 35 | 291 | 0.0 | 1.0 | 0.00 | 0.00 | 0.00 | 73 | 1005.6 |
| 20260505073718 | 36 | 293 | 0.0 | 0.0 | 0.00 | 0.00 | 0.00 | 73 | 1005.6 |
| 20260505073218 | 36 | 271 | 0.0 | 0.0 | 0.00 | 0.00 | 0.00 | 72 | 1005.6 |
| 20260505072718 | 36 | 225 | 0.0 | 0.0 | 0.00 | 0.00 | 0.00 | 72 | 1005.6 |
| 20260505072217 | 37 | 222 | 0.0 | 0.0 | 0.00 | 0.00 | 0.00 | 70 | 1005.6 |
| 20260505071718 | 37 | 222 | 0.0 | 1.0 | 0.00 | 0.00 | 0.00 | 68 | 1005.6 |
| 20260505071218 | 38 | 222 | 0.0 | 1.0 | 0.00 | 0.00 | 0.00 | 67 | 1005.6 |
| 20260505070720 | 38 | 292 | 0.0 | 1.0 | 0.00 | 0.00 | 0.00 | 66 | 1005.6 |
| 20260505070450 | 38 | 251 | 0.0 | 3.0 | 0.00 | 0.00 | 0.00 | 66 | 1005.5 |
| 20260505065717 | 38 | 333 | 0.0 | 3.0 | 0.00 | 0.00 | 0.00 | 66 | 1005.5 |
| 20260505065215 | 38 | 285 | 0.0 | 1.0 | 0.00 | 0.00 | 0.00 | 66 | 1005.5 |
| 20260505064716 | 39 | 269 | 0.0 | 2.0 | 0.00 | 0.00 | 0.00 | 65 | 1005.6 |
| 20260505064216 | 39 | 293 | 0.0 | 3.0 | 0.00 | 0.00 | 0.00 | 64 | 1005.6 |
| 20260505063715 | 39 | 188 | 0.0 | 3.0 | 0.00 | 0.00 | 0.00 | 62 | 1005.5 |
| 20260505063216 | 40 | 327 | 1.0 | 10.0 | 0.00 | 0.00 | 0.00 | 61 | 1005.5 |
| 20260505062715 | 40 | 271 | 2.0 | 10.0 | 0.00 | 0.00 | 0.00 | 61 | 1005.5 |
| 20260505062210 | 40 | 323 | 1.0 | 9.0 | 0.00 | 0.00 | 0.00 | 62 | 1005.4 |
| 20260505061709 | 40 | 262 | 1.0 | 4.0 | 0.00 | 0.00 | 0.00 | 62 | 1005.4 |
| 20260505061207 | 40 | 269 | 2.0 | 9.0 | 0.00 | 0.00 | 0.00 | 62 | 1005.4 |
| 20260505060707 | 40 | 304 | 1.0 | 9.0 | 0.00 | 0.00 | 0.00 | 63 | 1005.5 |
| 20260505060207 | 40 | 349 | 1.0 | 6.0 | 0.00 | 0.00 | 0.00 | 63 | 1005.4 |
| 20260505055940 | 40 | 274 | 1.0 | 6.0 | 0.00 | 0.00 | 0.00 | 63 | 1005.3 |
| 20260505055207 | 40 | 353 | 0.0 | 1.0 | 0.00 | 0.00 | 0.00 | 63 | 1005.3 |